2023-039D (55976 NORAD) Tracking and Keplerian Element Data

This shows tracking and keplerian element data for the satellite.

Feedback or suggestion? Click here.




ElementValue
Catalog55976
Name2023-039D
Epoch Orbit683
Epoch Day126.4806125
Epoch Year2023
RAAN276.4147
Inclination97.4212
Eccentricity0.001255
Argument of Perigee111.0826
Mean Anonmoly335.5302
Mean Motion15.20033187
Decay Rate7.323E-05
L11 55976U 23039D 23126.48061250 .00007323 00000+0 34208-3 0 9993
L22 55976 97.4212 276.4147 0012550 111.0826 335.5302 15.20033187 6830



Live tracking and technical data element details for 2023-039D (NORAD 55976). 2023-039D can be tracked NOW for your location showing map with azimuth and elevation plus other details from your city location.







IsCatalogInMostPopularTable: catalog: 55976, numindb: 6
Update: records affected: 1



GetName: 55976 2023-039D

Hit Count: updated at: Tue, 06 Jun 2023 03:24:31 GMT